DIAMOND GREEN (42785 NORAD) Tracking and Keplerian Element Data

This shows tracking and keplerian element data for the satellite.

Feedback or suggestion? Click here.




ElementValue
Catalog42785
NameDIAMOND GREEN
Epoch Orbit5981
Epoch Day202.60284596
Epoch Year2018
RAAN261.7446
Inclination97.3987
Eccentricity0.001115
Argument of Perigee323.2057
Mean Anonmoly36.8413
Mean Motion15.21532096
Decay Rate8.51E-06
L11 42785U 17036W 18202.60284596 .00000851 00000-0 40835-4 0 9994
L22 42785 97.3987 261.7446 0011150 323.2057 36.8413 15.21532096 59813

Live tracking and technical data element details for DIAMOND GREEN (NORAD 42785). DIAMOND GREEN can be tracked NOW for your location showing map with azimuth and elevation plus other details from your city location.

Track the satellite on the map from your city or location and see movement details for azimuth, elevation, latitude, longitude, range, height, and movement on the map or in text.







IsCatalogInMostPopularTable: catalog: 42785, numindb: 68
Update: records affected: 1



GetName: 42785 DIAMOND GREEN

Hit Count: updated at: Mon, 23 Jul 2018 07:28:08 GMT